Terug naar catalogus

STARLINK-32098

ActiefCommunicatieVLEO
NORAD 59704·PAYLOAD·🇺🇸 United States

Gelanceerd May 8, 2024 vanaf Cape Canaveral Space Force Station

Loading…

Volgende Passages (komende 24 uur)

TLE

VersSource: CelesTrak SupGP

Epoch: Sep 14, 2026, 21:04 UTC

1 59704C 24086Y   26257.87826389  .00020212  00000+0  73256-3 0  2577
2 59704  43.0043  71.6660 0001510 269.7137  91.9352 15.27547451    10

Volg STARLINK-32098 in realtime met AllMySat

Download on the App Store